CW8845 Weather Reports


Display with metric or nautical units.
time (UTC)temp
F
wind
direction
speed
MPH
gust
MPH
rain 1hr
in
rain 24hr
in
rain mn
in
humidity
%
barometer
mb
20260902005626 79 188 7.0 13.0 0.00 0.00 0.00 35 1011.7
20260902004618 79 185 6.0 16.0 0.00 0.00 0.00 35 1011.9
20260902003615 79 175 7.0 12.0 0.00 0.00 0.00 36 1011.9
20260902002625 79 211 7.0 16.0 0.00 0.00 0.00 35 1011.9
20260902001615 79 166 7.0 15.0 0.00 0.00 0.00 34 1011.9
20260902000629 79 164 9.0 15.0 0.00 0.00 0.00 34 1012.1
20260901235631 80 211 9.0 14.0 0.00 0.00 0.00 34 1012.0
20260901234623 80 219 7.0 17.0 0.00 0.00 0.00 33 1012.1
20260901233631 80 188 9.0 13.0 0.00 0.00 0.00 34 1012.1
20260901232620 80 175 10.0 16.0 0.00 0.00 0.00 34 1012.3
20260901231614 80 196 12.0 18.0 0.00 0.00 0.00 32 1012.6
20260901230621 79 198 10.0 16.0 0.00 0.00 0.00 36 1013.0
20260901225642 79 187 8.0 14.0 0.00 0.00 0.00 37 1013.1
20260901224631 79 198 9.0 14.0 0.00 0.00 0.00 37 1013.1
20260901223620 80 223 7.0 14.0 0.00 0.00 0.00 38 1013.2
20260901222633 80 188 7.0 15.0 0.00 0.00 0.00 37 1013.4
20260901221622 79 200 9.0 16.0 0.00 0.00 0.00 37 1013.4
20260901220612 79 202 8.0 16.0 0.00 0.00 0.00 38 1013.5
20260901215613 79 175 8.0 16.0 0.00 0.00 0.00 38 1013.7
20260901214627 79 203 8.0 16.0 0.00 0.00 0.00 40 1013.8
20260901213615 79 226 7.0 16.0 0.00 0.00 0.00 40 1013.9
20260901212624 79 224 8.0 17.0 0.00 0.00 0.00 41 1014.2
20260901211614 79 188 11.0 20.0 0.00 0.00 0.00 41 1014.4
20260901210627 78 157 11.0 17.0 0.00 0.00 0.00 42 1014.6
20260901205629 78 194 10.0 13.0 0.00 0.00 0.00 41 1014.7
20260901204619 77 190 10.0 18.0 0.00 0.00 0.00 43 1014.9
20260901203630 77 178 13.0 18.0 0.00 0.00 0.00 42 1015.0
20260901202624 78 231 9.0 18.0 0.00 0.00 0.00 42 1015.1
20260901201614 78 170 11.0 17.0 0.00 0.00 0.00 41 1015.2
20260901200645 77 223 8.0 15.0 0.00 0.00 0.00 42 1015.3
20260901195625 76 175 9.0 15.0 0.00 0.00 0.00 43 1015.5
20260901194619 76 163 9.0 16.0 0.00 0.00 0.00 43 1015.7
20260901193649 77 206 8.0 15.0 0.00 0.00 0.00 42 1015.8
20260901192618 77 192 10.0 22.0 0.00 0.00 0.00 42 1015.9
20260901191628 76 218 8.0 13.0 0.00 0.00 0.00 43 1015.9
20260901190623 76 218 8.0 14.0 0.00 0.00 0.00 43 1016.1
20260901185627 76 169 7.0 14.0 0.00 0.00 0.00 43 1016.2
20260901184616 74 235 7.0 12.0 0.00 0.00 0.00 46 1016.4
20260901183625 74 209 6.0 10.0 0.00 0.00 0.00 46 1016.4
20260901182618 73 170 7.0 11.0 0.00 0.00 0.00 47 1016.5
20260901181627 73 243 4.0 10.0 0.00 0.00 0.00 47 1016.7
20260901180625 73 194 7.0 10.0 0.00 0.00 0.00 47 1016.7
20260901175626 72 194 6.0 11.0 0.00 0.00 0.00 47 1016.9
20260901174621 72 196 6.0 10.0 0.00 0.00 0.00 46 1016.9
20260901173630 72 205 4.0 11.0 0.00 0.00 0.00 46 1017.0
20260901172617 72 224 7.0 11.0 0.00 0.00 0.00 44 1017.1
20260901171646 72 194 8.0 12.0 0.00 0.00 0.00 46 1017.0
20260901170618 72 210 5.0 9.0 0.00 0.00 0.00 48 1017.1
20260901165618 71 188 6.0 11.0 0.00 0.00 0.00 47 1017.2
20260901164626 71 208 7.0 12.0 0.00 0.00 0.00 47 1017.1
20260901163636 71 213 7.0 13.0 0.00 0.00 0.00 49 1017.1
20260901162627 69 232 1.0 5.0 0.00 0.00 0.00 56 1017.1
20260901161622 68 184 3.0 7.0 0.00 0.00 0.00 57 1017.0
20260901160614 67 221 1.0 5.0 0.00 0.00 0.00 61 1017.0
20260901155616 67 233 1.0 5.0 0.00 0.00 0.00 64 1017.2
20260901154648 67 244 0.0 3.0 0.00 0.00 0.00 65 1017.1
20260901153622 66 245 0.0 3.0 0.00 0.00 0.00 67 1017.1
20260901152614 66 232 2.0 5.0 0.00 0.00 0.00 67 1017.0
20260901151625 65 232 2.0 4.0 0.00 0.00 0.00 67 1017.2
20260901150619 65 66 0.0 7.0 0.00 0.00 0.00 69 1017.2
20260901145621 64 360 0.0 2.0 0.00 0.00 0.00 72 1017.3
20260901144612 63 360 0.0 1.0 0.00 0.00 0.00 73 1017.4
20260901143623 62 360 0.0 2.0 0.00 0.00 0.00 75 1017.2
20260901142617 61 360 0.0 1.0 0.00 0.00 0.00 76 1017.2
20260901141628 61 360 0.0 1.0 0.00 0.00 0.00 76 1017.2
20260901140619 60 360 1.0 3.0 0.00 0.00 0.00 77 1017.1
20260901135622 60 360 1.0 4.0 0.00 0.00 0.00 76 1017.0
20260901134618 60 182 1.0 5.0 0.00 0.00 0.00 77 1017.0
20260901133648 59 75 4.0 6.0 0.00 0.00 0.00 80 1016.9
20260901132617 59 78 2.0 4.0 0.00 0.00 0.00 80 1016.8
20260901131650 58 74 2.0 6.0 0.00 0.00 0.00 81 1016.7
20260901130622 56 11 2.0 4.0 0.00 0.00 0.00 82 1016.7
20260901125622 56 11 0.0 0.0 0.00 0.00 0.00 80 1016.8
20260901124613 57 11 0.0 0.0 0.00 0.00 0.00 80 1016.9
20260901123623 57 11 0.0 1.0 0.00 0.00 0.00 80 1016.8
20260901122616 57 11 0.0 2.0 0.00 0.00 0.00 79 1016.7
20260901121627 57 11 0.0 2.0 0.00 0.00 0.00 78 1016.9
20260901120618 58 11 0.0 0.0 0.00 0.00 0.00 79 1016.8
20260901115620 58 11 0.0 0.0 0.00 0.00 0.00 78 1016.9
20260901114614 59 11 0.0 2.0 0.00 0.00 0.00 79 1016.8
20260901113645 58 11 0.0 2.0 0.00 0.00 0.00 79 1016.9
20260901112613 58 11 0.0 2.0 0.00 0.00 0.00 78 1016.9
20260901111622 58 11 0.0 1.0 0.00 0.00 0.00 78 1016.9
20260901110616 58 11 0.0 2.0 0.00 0.00 0.00 77 1016.9
20260901105618 59 11 1.0 4.0 0.00 0.00 0.00 76 1016.9
20260901104628 59 11 0.0 2.0 0.00 0.00 0.00 75 1016.8
20260901103617 60 11 2.0 3.0 0.00 0.00 0.00 75 1016.7
20260901102631 60 11 1.0 2.0 0.00 0.00 0.00 77 1016.7
20260901101621 60 11 1.0 3.0 0.00 0.00 0.00 77 1016.6
20260901100631 60 11 1.0 4.0 0.00 0.00 0.00 77 1016.7
20260901095634 60 11 1.0 4.0 0.00 0.00 0.00 76 1016.7
20260901094644 60 11 2.0 4.0 0.00 0.00 0.00 76 1016.8
20260901093637 61 10 0.0 2.0 0.00 0.00 0.00 76 1016.8
20260901092627 61 10 2.0 3.0 0.00 0.00 0.00 75 1016.8
20260901091618 62 10 1.0 4.0 0.00 0.00 0.00 74 1016.7
20260901090628 62 10 0.0 2.0 0.00 0.00 0.00 74 1016.7
20260901085614 62 10 0.0 1.0 0.00 0.00 0.00 73 1016.7
20260901084646 62 10 1.0 5.0 0.00 0.00 0.00 73 1016.6
20260901083616 62 5 1.0 6.0 0.00 0.00 0.00 73 1016.6
20260901082626 62 42 1.0 6.0 0.00 0.00 0.00 72 1016.6
20260901081621 63 80 4.0 10.0 0.00 0.00 0.00 70 1016.8
20260901080614 64 105 5.0 11.0 0.00 0.00 0.00 68 1016.8
20260901075615 65 107 1.0 7.0 0.00 0.00 0.00 66 1016.7
20260901074625 66 174 2.0 5.0 0.00 0.00 0.00 63 1016.7
20260901073619 67 161 1.0 7.0 0.00 0.00 0.00 60 1016.6
20260901072628 67 128 2.0 4.0 0.00 0.00 0.00 56 1016.6
20260901071619 67 135 1.0 4.0 0.00 0.00 0.00 54 1016.6
20260901070614 66 76 0.0 3.0 0.00 0.00 0.00 55 1016.7
20260901065638 67 104 0.0 3.0 0.00 0.00 0.00 53 1016.9
20260901064648 67 143 0.0 2.0 0.00 0.00 0.00 53 1017.0
20260901063638 67 144 1.0 3.0 0.00 0.00 0.00 51 1016.9
20260901062627 68 144 0.0 1.0 0.00 0.00 0.00 50 1016.9
20260901061643 68 144 1.0 3.0 0.00 0.00 0.00 50 1017.0
20260901060622 68 168 3.0 6.0 0.00 0.00 0.00 49 1017.0
20260901055645 68 188 3.0 5.0 0.00 0.00 0.00 49 1017.2
20260901054614 68 176 3.0 7.0 0.00 0.00 0.00 51 1017.2
20260901053624 68 180 3.0 7.0 0.00 0.00 0.00 51 1017.4
20260901052619 68 140 3.0 8.0 0.00 0.00 0.00 51 1017.5
20260901051629 68 180 4.0 8.0 0.00 0.00 0.00 51 1017.5
20260901050638 68 198 4.0 7.0 0.00 0.00 0.00 52 1017.6
20260901045619 69 218 2.0 7.0 0.00 0.00 0.00 49 1017.6
20260901044612 69 196 1.0 4.0 0.00 0.00 0.00 46 1017.6
20260901043643 69 181 4.0 14.0 0.00 0.00 0.00 46 1017.4
20260901042631 69 151 6.0 11.0 0.00 0.00 0.00 46 1017.4
20260901041623 69 133 5.0 15.0 0.00 0.00 0.00 47 1017.4
20260901040617 69 132 7.0 16.0 0.00 0.00 0.00 47 1017.3
20260901035618 69 141 9.0 17.0 0.00 0.00 0.00 46 1017.2
20260901034651 69 153 7.0 18.0 0.00 0.00 0.00 47 1017.2
20260901033620 69 140 8.0 18.0 0.00 0.00 0.00 47 1017.1
20260901032614 69 111 11.0 19.0 0.00 0.00 0.00 49 1017.0
20260901031624 69 131 10.0 21.0 0.00 0.00 0.00 49 1016.9
20260901030614 69 149 13.0 23.0 0.00 0.00 0.00 48 1016.8
20260901025616 69 140 10.0 20.0 0.00 0.00 0.00 50 1016.7
20260901024626 70 100 11.0 19.0 0.00 0.00 0.00 51 1016.6
20260901023619 71 191 11.0 22.0 0.00 0.00 0.00 47 1016.3
20260901022629 71 187 12.0 26.0 0.00 0.00 0.00 46 1016.0
20260901021618 72 173 13.0 26.0 0.00 0.00 0.00 47 1015.9
20260901020631 72 157 15.0 24.0 0.00 0.00 0.00 47 1015.4
20260901015612 73 164 13.0 26.0 0.00 0.00 0.00 45 1015.2
20260901014623 73 163 16.0 27.0 0.00 0.00 0.00 42 1015.0
20260901013613 75 167 16.0 30.0 0.00 0.00 0.00 38 1015.0
20260901012628 79 161 9.0 13.0 0.00 0.00 0.00 34 1014.6
20260901011617 79 169 7.0 14.0 0.00 0.00 0.00 32 1014.3
20260901010626 79 186 5.0 10.0 0.00 0.00 0.00 34 1014.2